Location: Chippewa Lake
(41.0698°N, 81.9010°W)
Time: 20:39:07
(UTC+00:00)

Cosmos 1844 Rocket - Pass Details

Date: 09 May 2021
Orbit: 823 x 845 km, 71.0° (Epoch: 16 June)

Event Time Altitude Azimuth Distance (km) Brightness Sun altitude
Rises 02:15:13 0° 221° (SW) 3,345 5.8 -17.0°
Reaches altitude 10° 02:17:44 10° 227° (SW) 2,417 5.1 -17.3°
Maximum altitude 02:23:01 44° 299° (WNW) 1,127 3.8 -18.1°
Drops below altitude 10° 02:28:20 10° 12° (NNE) 2,438 5.5 -18.8°
Sets 02:30:55 0° 19° (NNE) 3,378 6.2 -19.1°
